TimeEST,TemperatureF,Dew PointF,Humidity,Sea Level PressureIn,VisibilityMPH,Wind Direction,Wind SpeedMPH,Gust SpeedMPH,PrecipitationIn,Events,Conditions,WindDirDegrees,DateUTC
12:54 AM,34.0,28.9,82,30.29,-9999.0,NNW,3.5,-,0.04,,Unknown,340,2013-01-15 05:54:00
1:54 AM,33.1,30.0,89,30.27,-9999.0,Calm,Calm,-,0.02,,Unknown,0,2013-01-15 06:54:00
2:54 AM,33.1,30.0,89,30.24,-9999.0,Variable,3.5,-,N/A,,Unknown,0,2013-01-15 07:54:00
3:54 AM,34.0,30.0,85,30.27,-9999.0,Calm,Calm,-,N/A,,Unknown,0,2013-01-15 08:54:00
4:54 AM,33.1,30.9,92,30.27,-9999.0,Calm,Calm,-,N/A,,Unknown,0,2013-01-15 09:54:00
5:54 AM,33.1,30.9,92,30.29,-9999.0,Calm,Calm,-,N/A,,Unknown,0,2013-01-15 10:54:00
6:54 AM,30.9,28.9,92,30.31,-9999.0,Calm,Calm,-,0.02,,Unknown,0,2013-01-15 11:54:00
7:54 AM,32.0,30.0,92,30.34,-9999.0,Calm,Calm,-,0.02,,Unknown,0,2013-01-15 12:54:00
8:54 AM,33.1,26.1,75,30.37,-9999.0,Calm,Calm,-,N/A,,Unknown,0,2013-01-15 13:54:00
9:54 AM,33.1,26.1,75,30.37,-9999.0,Calm,Calm,-,N/A,,Unknown,0,2013-01-15 14:54:00
10:54 AM,33.1,25.0,72,30.37,-9999.0,Calm,Calm,-,N/A,,Unknown,0,2013-01-15 15:54:00
11:54 AM,34.0,25.0,70,30.35,-9999.0,Calm,Calm,-,N/A,,Unknown,0,2013-01-15 16:54:00
12:54 PM,35.1,25.0,67,30.31,-9999.0,Calm,Calm,-,N/A,,Unknown,0,2013-01-15 17:54:00
1:54 PM,35.1,24.1,64,30.30,-9999.0,NE,4.6,-,N/A,,Unknown,40,2013-01-15 18:54:00
2:54 PM,36.0,24.1,62,30.27,-9999.0,NNE,3.5,-,N/A,,Unknown,30,2013-01-15 19:54:00
3:54 PM,36.0,24.1,62,30.30,-9999.0,Calm,Calm,-,N/A,,Unknown,0,2013-01-15 20:54:00
4:54 PM,36.0,24.1,62,30.29,-9999.0,Calm,Calm,-,0.02,,Unknown,0,2013-01-15 21:54:00
5:54 PM,36.0,25.0,64,30.29,-9999.0,Calm,Calm,-,0.02,,Unknown,0,2013-01-15 22:54:00
6:54 PM,35.1,25.0,67,30.31,-9999.0,Calm,Calm,-,N/A,,Unknown,0,2013-01-15 23:54:00
7:54 PM,35.1,25.0,67,30.27,-9999.0,Calm,Calm,-,N/A,,Unknown,0,2013-01-16 00:54:00
8:54 PM,35.1,26.1,70,30.27,-9999.0,Calm,Calm,-,0.02,,Unknown,0,2013-01-16 01:54:00
9:54 PM,35.1,26.1,70,30.26,-9999.0,Calm,Calm,-,N/A,,Unknown,0,2013-01-16 02:54:00
10:54 PM,33.1,28.0,82,30.25,-9999.0,Calm,Calm,-,N/A,,Unknown,0,2013-01-16 03:54:00
11:54 PM,32.0,28.9,88,30.25,-9999.0,Calm,Calm,-,N/A,,Unknown,0,2013-01-16 04:54:00